Le nostre stazioni meteo in Italia

Pubblicità
Il mio iltempo24.it
Lulea/Kallax, Svezia (2186): Temperatura & dewpoint: 15.09.2018 05:00:00 - 21.09.2018 05:00:00 (CEST)Lulea/Kallax, Svezia (2186): velocità del vento & gusts: 15.09.2018 05:00:00 - 21.09.2018 05:00:00 (CEST)Lulea/Kallax, Svezia (2186): direzione del vento: 15.09.2018 05:00:00 - 21.09.2018 05:00:00 (CEST)Lulea/Kallax, Svezia (2186): reduced air pressure: 15.09.2018 05:00:00 - 21.09.2018 05:00:00 (CEST)Lulea/Kallax, Svezia (2186): visibility: 15.09.2018 05:00:00 - 21.09.2018 05:00:00 (CEST)Lulea/Kallax, Svezia (2186): precipitazioni: 15.09.2018 05:00:00 - 21.09.2018 05:00:00 (CEST)
Data & Tempo tt [°C] td [°C] ff [km/h] ff [kn] fx [km/h] fx [kn] dd ppp [hPa] vv [km] rr [mm]
21.09.2018 05:00:00 10,0 4,0 18 10 - - SO - 10 -
21.09.2018 04:00:00 10,2 3,9 22 12 40 21 SO 994,6 10 0,0
21.09.2018 03:00:00 11,4 3,7 21 11 40 21 OSO 993,9 10 0,0
21.09.2018 02:00:00 11,5 3,8 22 12 40 21 OSO 992,8 10 0,0
21.09.2018 01:00:00 11,8 4,5 22 12 36 19 SO 992,1 10 0,0
21.09.2018 00:00:00 11,9 4,8 21 11 36 19 SO 991,4 10 0,0
20.09.2018 23:00:00 11,9 5,1 16 9 29 16 SO 991,3 10 0,0
20.09.2018 22:00:00 12,6 5,3 16 9 36 19 SO 991,5 10 0,0
20.09.2018 21:00:00 12,3 6,6 13 7 25 14 SSO 991,1 10 0,0
20.09.2018 20:00:00 12,2 6,0 15 8 29 16 SO 990,7 10 0,0
20.09.2018 19:00:00 13,3 4,7 15 8 50 27 SO 990,7 10 0,0
20.09.2018 18:00:00 13,1 6,4 15 8 32 18 O 990,4 10 0,7
20.09.2018 17:00:00 15,7 5,3 13 7 36 19 SO 989,3 10 0,0
20.09.2018 16:00:00 17,6 5,8 21 11 36 19 SO 988,7 10 0,0
20.09.2018 15:00:00 17,2 9,1 18 10 36 19 S 988,2 10 0,0
20.09.2018 14:00:00 14,7 12,4 22 12 36 19 S 988,1 10 0,0
20.09.2018 13:00:00 14,8 12,5 22 12 43 23 S 988,2 10 0,0
20.09.2018 12:00:00 14,4 12,8 21 11 36 19 S 988,4 10 0,0
20.09.2018 11:00:00 14,0 12,7 26 14 47 25 S 988,9 10 0,0
20.09.2018 10:00:00 14,0 12,7 31 17 50 27 S 989,4 10 0,0
20.09.2018 09:00:00 14,0 12,9 31 17 47 25 S 989,8 10 0,0
20.09.2018 08:00:00 13,0 12,0 26 14 - - S - 10 -
20.09.2018 07:00:00 13,1 12,3 24 13 43 23 S 991,9 10 0,0
20.09.2018 06:00:00 12,7 12,4 24 13 43 23 SE 993,1 10 0,0
20.09.2018 05:00:00 12,2 11,9 18 10 25 14 SE 994,6 10 0,0
20.09.2018 04:00:00 11,9 11,6 16 9 22 12 SE 996,6 10 0,0
20.09.2018 03:00:00 11,2 10,9 8 4 14 8 SSE 998,0 0,6 0,0
20.09.2018 02:00:00 10,6 10,3 4 2 7 4 ESE 998,3 0,9 0,0
20.09.2018 01:00:00 10,5 10,2 0 0 4 2 N 998,5 0,4 0,0
20.09.2018 00:00:00 10,6 10,3 2 1 7 4 - 999,4 0,1 0,0
19.09.2018 23:00:00 10,8 10,5 8 4 14 8 NO 999,5 0,3 0,0
19.09.2018 22:00:00 11,3 11,0 9 5 18 10 NO 999,4 1,0 0,0
19.09.2018 21:00:00 11,5 11,2 4 2 14 8 E 997,4 1,5 0,0
19.09.2018 20:00:00 11,8 11,3 11 6 14 8 NO 999,6 10 0,4
19.09.2018 19:00:00 12,4 11,9 11 6 14 8 NO 999,1 10 2,0
19.09.2018 18:00:00 12,5 12,0 4 2 7 4 - 998,7 9 0,0
19.09.2018 17:00:00 12,6 12,1 4 2 11 6 - 998,6 3,7 0,0
19.09.2018 16:00:00 12,5 12,0 2 1 11 6 - 998,4 5 0,0
19.09.2018 15:00:00 12,6 12,1 8 4 14 8 ESE 998,5 4,0 0,0
19.09.2018 14:00:00 12,3 11,8 8 4 14 8 ESE 998,5 3,0 0,6
19.09.2018 13:00:00 12,1 11,6 8 4 14 8 E 998,6 4,0 0,3
19.09.2018 12:00:00 12,1 11,3 9 5 18 10 ESE 998,7 10 0,0
19.09.2018 11:00:00 12,0 11,4 9 5 18 10 ESE 999,1 10 0,1
19.09.2018 10:00:00 12,0 11,4 9 5 18 10 ESE 999,4 10 0,1
19.09.2018 09:00:00 12,1 11,3 13 7 18 10 SE 999,9 10 0,4
19.09.2018 08:00:00 11,9 11,4 11 6 18 10 ESE 1000,0 6 0,8
19.09.2018 07:00:00 11,8 11,2 11 6 18 10 E 1000,3 8 0,0
19.09.2018 06:00:00 11,5 10,6 8 4 18 10 E 1000,6 10 0,0
19.09.2018 05:00:00 10,2 9,6 4 2 11 6 - 1001,3 10 0,2
19.09.2018 04:00:00 10,9 10,1 4 2 7 4 - 1001,8 10 0,0
19.09.2018 03:00:00 10,4 9,6 0 0 7 4 N 1002,3 10 0,0
19.09.2018 02:00:00 9,5 9,0 4 2 7 4 ENE 1002,3 2,0 0,0
19.09.2018 01:00:00 8,4 7,8 2 1 4 2 NE 1002,9 10 0,0
19.09.2018 00:00:00 8,6 7,8 4 2 7 4 E 1003,1 10 0,0
18.09.2018 23:00:00 8,9 8,0 0 0 4 2 N 1003,0 10 0,0
18.09.2018 22:00:00 9,2 8,1 2 1 4 2 NE 1003,4 10 0,0
18.09.2018 21:00:00 10,0 8,6 2 1 14 8 - 1003,4 10 0,0
18.09.2018 20:00:00 11,1 8,8 0 0 11 6 N 1003,3 10 0,0
18.09.2018 19:00:00 11,6 8,8 2 1 14 8 - 1003,5 10 0,0
18.09.2018 18:00:00 12,1 7,6 11 6 22 12 SSO 1003,2 10 0,0
18.09.2018 17:00:00 12,8 6,4 11 6 18 10 SSO 1003,2 10 0,0
18.09.2018 16:00:00 13,4 5,3 9 5 18 10 SSO 1003,2 10 0,0
18.09.2018 15:00:00 14,0 5,4 13 7 18 10 SSO 1003,6 10 0,0
18.09.2018 14:00:00 13,0 5,4 9 5 22 12 SO 1003,5 10 0,0
18.09.2018 13:00:00 13,3 4,2 11 6 18 10 OSO 1003,6 10 0,0
18.09.2018 12:00:00 12,6 4,1 13 7 25 14 SO 1003,5 10 0,0
18.09.2018 11:00:00 11,4 4,4 11 6 25 14 O 1003,5 10 0,0
18.09.2018 10:00:00 9,9 3,8 16 9 25 14 O 1003,6 10 0,0
18.09.2018 09:00:00 8,5 3,7 16 9 25 14 O 1003,6 10 0,0
18.09.2018 08:00:00 7,1 3,2 11 6 22 12 O 1003,6 10 0,0
18.09.2018 07:00:00 5,3 2,8 5 3 18 10 O 1003,4 10 0,0
18.09.2018 06:00:00 5,1 2,6 9 5 14 8 O 1003,2 10 0,0
18.09.2018 05:00:00 5,9 3,1 13 7 22 12 O 1002,9 10 0,0
18.09.2018 04:00:00 6,5 3,1 9 5 25 14 O 1002,8 10 0,0
18.09.2018 03:00:00 6,3 3,5 15 8 25 14 O 1002,6 10 0,0
18.09.2018 02:00:00 6,4 4,1 11 6 22 12 O 1002,1 10 0,0
18.09.2018 01:00:00 6,9 4,9 11 6 18 10 O 1001,8 10 0,0
18.09.2018 00:00:00 7,5 5,3 13 7 18 10 O 1001,5 10 0,0
17.09.2018 23:00:00 7,6 5,6 11 6 18 10 O 1001,3 10 0,0
17.09.2018 22:00:00 8,1 6,1 9 5 18 10 O 1001,2 10 0,0
17.09.2018 21:00:00 8,6 6,6 9 5 18 10 O 1001,3 10 0,0
17.09.2018 20:00:00 8,7 7,0 9 5 14 8 O 1001,2 10 0,0
17.09.2018 19:00:00 9,1 6,9 8 4 14 8 O 1001,0 10 0,4
17.09.2018 18:00:00 10,4 6,5 9 5 22 12 O 1000,8 10 0,1
17.09.2018 17:00:00 11,3 8,0 8 4 14 8 SSO 1000,8 10 0,0
17.09.2018 16:00:00 11,7 6,8 8 4 14 8 SSO 1000,8 10 0,0
17.09.2018 15:00:00 11,2 6,5 9 5 14 8 S 1001,0 10 0,0
17.09.2018 14:00:00 12,3 5,5 8 4 14 8 SE 1001,3 10 0,0
17.09.2018 13:00:00 11,1 5,0 4 2 14 8 - 1001,5 10 0,0
17.09.2018 12:00:00 10,0 5,6 8 4 14 8 SSO 1001,7 10 0,0
17.09.2018 11:00:00 10,0 5,8 4 2 7 4 - 1002,0 10 0,0
17.09.2018 10:00:00 8,4 5,2 2 1 7 4 - 1002,3 10 0,0
17.09.2018 09:00:00 5,9 5,2 5 3 7 4 NO 1002,5 10 0,0
17.09.2018 08:00:00 4,5 4,1 5 3 7 4 O 1003,0 10 0,0
17.09.2018 07:00:00 2,4 1,8 4 2 4 2 NO 1002,9 10 0,0
17.09.2018 06:00:00 1,1 0,5 4 2 7 4 ONO 1003,3 10 0,0
17.09.2018 05:00:00 1,4 0,7 2 1 7 4 - 1003,6 10 0,0
17.09.2018 04:00:00 1,9 1,2 0 0 4 2 N 1003,8 10 0,0
17.09.2018 03:00:00 2,7 2,0 0 0 4 2 N 1004,1 10 0,0
17.09.2018 02:00:00 3,4 2,2 0 0 4 2 N 1004,3 10 0,0
17.09.2018 01:00:00 4,2 2,5 0 0 7 4 N 1004,6 10 0,0
17.09.2018 00:00:00 5,8 3,5 4 2 7 4 NO 1004,6 10 0,0
16.09.2018 23:00:00 7,1 3,9 5 3 18 10 O 1004,6 10 0,0
16.09.2018 22:00:00 8,3 4,1 15 8 25 14 O 1004,6 10 0,0
16.09.2018 21:00:00 8,8 4,2 9 5 22 12 O 1004,6 10 0,0
16.09.2018 20:00:00 10,3 4,2 9 5 18 10 O 1004,5 10 0,0
16.09.2018 19:00:00 11,9 4,4 11 6 25 14 ONO 1004,3 10 0,0
16.09.2018 18:00:00 13,0 4,9 11 6 29 16 O 1003,8 10 0,0
16.09.2018 17:00:00 13,7 4,6 22 12 36 19 ONO 1003,7 10 0,0
16.09.2018 16:00:00 13,9 4,7 16 9 40 21 O 1003,4 10 0,0
16.09.2018 15:00:00 14,7 4,7 21 11 36 19 O 1003,0 10 0,0
16.09.2018 14:00:00 13,7 4,8 21 11 36 19 O 1003,1 10 0,0
16.09.2018 13:00:00 13,7 4,8 22 12 36 19 ONO 1002,8 10 0,0
16.09.2018 12:00:00 12,3 4,3 26 14 40 21 ONO 1002,8 10 0,0
16.09.2018 11:00:00 11,8 4,8 24 13 40 21 O 1002,4 10 0,0
16.09.2018 10:00:00 11,3 4,7 28 15 40 21 O 1002,0 10 0,0
16.09.2018 09:00:00 9,5 4,1 24 13 32 18 O 1001,6 10 0,0
16.09.2018 08:00:00 8,4 3,8 22 12 36 19 O 1001,5 10 0,0
16.09.2018 07:00:00 7,3 3,5 16 9 32 18 O 1001,5 10 0,0
16.09.2018 06:00:00 7,1 3,5 18 10 29 16 O 1001,2 10 0,0
16.09.2018 05:00:00 6,8 3,6 18 10 32 18 OSO 1001,2 10 0,0
16.09.2018 04:00:00 7,0 3,6 18 10 32 18 O 1001,2 10 0,0
16.09.2018 03:00:00 7,4 3,8 18 10 29 16 OSO 1001,2 10 0,0
16.09.2018 02:00:00 7,9 4,1 18 10 32 18 OSO 1001,3 10 0,0
16.09.2018 01:00:00 8,1 4,3 15 8 32 18 OSO 1001,1 10 0,0
16.09.2018 00:00:00 8,3 4,3 15 8 29 16 OSO 1001,3 10 0,0
15.09.2018 23:00:00 9,0 5,2 18 10 32 18 OSO 1001,0 10 0,0
15.09.2018 22:00:00 9,1 5,7 11 6 22 12 SO 1001,2 10 0,0
15.09.2018 21:00:00 9,1 5,3 13 7 22 12 OSO 1000,9 10 0,0
15.09.2018 20:00:00 9,7 5,7 11 6 22 12 OSO 1000,2 10 0,0
15.09.2018 19:00:00 10,4 6,0 9 5 18 10 OSO 999,9 10 0,0
15.09.2018 18:00:00 11,6 6,1 9 5 32 18 O 999,6 10 0,0
15.09.2018 17:00:00 12,5 7,2 22 12 36 19 OSO 998,8 10 0,0
15.09.2018 16:00:00 13,1 10,5 16 9 32 18 SSO 998,4 10 0,0
15.09.2018 15:00:00 13,6 10,6 16 9 32 18 S 998,2 10 0,0
15.09.2018 14:00:00 12,8 10,9 26 14 47 25 SSE 998,5 10 0,0
15.09.2018 13:00:00 11,8 9,7 28 15 43 23 SSE 999,3 10 0,3
15.09.2018 12:00:00 12,2 10,8 18 10 40 21 S 1000,2 10 0,6
15.09.2018 11:00:00 12,5 10,9 29 16 40 21 SSE 1000,6 10 0,2
15.09.2018 10:00:00 13,1 11,3 22 12 40 21 SSE 1001,3 10 0,0
15.09.2018 09:00:00 12,9 11,5 22 12 32 18 SSE 1001,8 10 0,0
15.09.2018 08:00:00 12,6 11,2 18 10 29 16 S 1002,4 10 0,0
15.09.2018 07:00:00 11,9 11,1 13 7 22 12 S 1002,8 10 0,0
15.09.2018 06:00:00 5,6 4,7 8 4 11 6 SSE 1003,3 10 0,0
15.09.2018 05:00:00 3,8 3,1 0 0 4 2 N 1003,9 10 0,0

tt = Temperatura
td = dewpoint
ff = velocità del vento
fx = gusts
dd = direzione del vento
ppp = reduced air pressure
vv = visibility
rr = precipitazioni

Stazioni seguenti

WeatherPro
AMSI
MeteoEarth